This demonstration page uses our WeatherBlox Daily Observations layout. Learn more.

40.92945, -100.16068

Hourly Observations for June 15, 2017

Temp ( °F °C ) Dew Point ( °F °C ) Humidity (%) Winds ( mph kmh ) Pressure ( in mb ) Visibility ( mi km ) Precip ( " mm )
12:15 am 00:15 Clear 69 20.3 51 10.8 55 55 N 5 7 29.83 1010 10 16.0934 0 0
12:35 am 00:35 Clear 65 18.6 53 11.4 63 63 Calm 29.85 1011 10 16.0934 0 0
12:55 am 00:55 Clear 68 19.8 52 11.1 57 57 Calm 29.8 1009 10 16.0934 0 0
1:15 am 01:15 Clear 66 19 54 12 64 64 Calm 29.8 1009 10 16.0934 0 0
1:35 am 01:35 Clear 62 16.9 53 11.5 71 71 Calm 29.83 1010 10 16.0934 0 0
1:55 am 01:55 Clear 62 16.7 52 10.9 69 69 S 3 6 29.83 1010 10 16.0934 0 0
2:15 am 02:15 Clear 63 17.3 51 10.7 65 65 Calm 29.83 1010 10 16.0934 0 0
2:35 am 02:35 Clear 63 17.3 52 11.2 68 68 SSW 3 6 29.83 1010 10 16.0934 0 0
2:55 am 02:55 Clear 63 17.2 52 11 67 67 Calm 29.83 1010 10 16.0934 0 0
3:15 am 03:15 Clear 58 14.3 51 10.3 77 77 Calm 29.85 1011 10 16.0934 0 0
3:35 am 03:35 Clear 61 16.1 51 10.5 70 70 Calm 29.83 1010 10 16.0934 0 0
3:55 am 03:55 Clear 58 14.3 51 10.4 78 78 Calm 29.85 1011 10 16.0934 0 0
4:15 am 04:15 Clear 60 15.6 49 9.7 68 68 Calm 29.83 1010 10 16.0934 0 0
4:35 am 04:35 Clear 57 13.7 51 10.5 81 81 NNW 6 9 29.88 1012 10 16.0934 0 0
4:55 am 04:55 Clear 56 13.4 50 10.1 81 81 N 5 7 29.88 1012 10 16.0934 0 0
5:15 am 05:15 Clear 56 13.6 51 10.4 81 81 NNW 3 6 29.88 1012 10 16.0934 0 0
5:35 am 05:35 Clear 57 13.9 51 10.5 80 80 WNW 3 6 29.88 1012 10 16.0934 0 0
5:55 am 05:55 Clear 56 13.2 51 10.3 83 83 W 6 9 29.88 1012 10 16.0934 0 0
6:15 am 06:15 Sunny 55 12.8 51 10.4 85 85 NNW 5 7 29.91 1013 10 16.0934 0 0
6:35 am 06:35 Sunny 55 12.7 51 10.3 85 85 NNW 3 6 29.91 1013 10 16.0934 0 0
6:55 am 06:55 Hazy 56 13.2 51 10.7 85 85 Calm 29.91 1013 2.5 4.02335 0 0
7:15 am 07:15 Sunny 59 14.9 54 12.2 84 84 Calm 29.91 1013 10 16.0934 0 0
7:35 am 07:35 Sunny 62 16.4 54 12.4 77 77 Calm 29.88 1012 10 16.0934 0 0
7:55 am 07:55 Sunny 64 17.5 54 12.1 71 71 Calm 29.88 1012 10 16.0934 0 0
8:15 am 08:15 Sunny 66 18.9 55 12.5 67 67 Calm 29.88 1012 7 11.26538 0 0
8:35 am 08:35 Sunny 68 20 54 12 60 60 Calm 29.85 1011 10 16.0934 0 0
8:55 am 08:55 Sunny 70 21.1 55 12.7 59 59 Calm 29.85 1011 10 16.0934 0 0
9:15 am 09:15 Sunny 73 22.9 55 12.6 52 52 Calm 29.83 1010 10 16.0934 0 0
9:35 am 09:35 Sunny 76 24.3 54 12.1 47 47 Calm 29.83 1010 10 16.0934 0 0
9:55 am 09:55 Sunny 77 25.1 55 12.8 46 46 Calm 29.83 1010 10 16.0934 0 0
10:15 am 10:15 Sunny 79 25.9 51 10.3 38 38 W 3 6 29.83 1010 10 16.0934 0 0
10:35 am 10:35 Sunny 80 26.5 51 10.8 37 37 WSW 3 6 29.8 1009 10 16.0934 0 0
10:55 am 10:55 Sunny 82 27.6 51 10.4 34 34 SW 3 6 29.77 1008 10 16.0934 0 0
11:15 am 11:15 Sunny 82 27.6 52 11.1 36 36 Calm 29.77 1008 10 16.0934 0 0
11:35 am 11:35 Sunny 83 28.6 51 10.7 33 33 WNW 3 6 29.77 1008 10 16.0934 0 0
11:55 am 11:55 Sunny 85 29.4 51 10.4 31 31 W 3 6 29.77 1008 10 16.0934 0 0
12:15 pm 12:15 Sunny 85 29.5 51 10.3 30 30 NNW 5 7 29.77 1008 10 16.0934 0 0
12:35 pm 12:35 Sunny 86 30.2 53 11.5 32 32 NW 7 11 29.74 1007 10 16.0934 0 0
12:55 pm 12:55 Sunny 87 30.4 51 10.8 30 30 NW 6 9 29.74 1007 10 16.0934 0 0
1:15 pm 13:15 Sunny 87 30.6 50 9.8 27 27 NW 5 7 29.74 1007 10 16.0934 0 0
1:35 pm 13:35 Sunny 88 31.1 51 10.3 28 28 NNW 6 9 29.74 1007 10 16.0934 0 0
1:55 pm 13:55 Sunny 88 31 49 9.7 27 27 Calm 29.74 1007 10 16.0934 0 0
2:15 pm 14:15 Sunny 89 31.5 50 10.2 27 27 Calm 29.74 1007 10 16.0934 0 0
2:35 pm 14:35 Sunny 90 32.2 46 7.7 22 22 N 5 7 29.74 1007 10 16.0934 0 0
2:55 pm 14:55 Sunny 90 32.2 48 8.7 23 23 Calm 29.71 1006 10 16.0934 0 0
3:15 pm 15:15 Sunny 91 32.8 46 7.8 21 21 WNW 6 9 29.71 1006 10 16.0934 0 0
3:35 pm 15:35 Sunny 90 32.4 45 7.1 21 21 WNW 9 15 29.71 1006 10 16.0934 0 0
3:55 pm 15:55 Sunny 89 31.9 47 8.6 23 23 NNW 7 11 29.71 1006 10 16.0934 0 0
4:15 pm 16:15 Sunny 88 31 48 9.1 26 26 N 9 15 29.71 1006 10 16.0934 0 0
4:35 pm 16:35 Sunny 91 32.5 45 7.2 21 21 NNE 3 6 29.68 1005 10 16.0934 0 0
4:55 pm 16:55 Sunny 88 31.2 49 9.7 26 26 NNW 3 6 29.68 1005 10 16.0934 0 0
5:15 pm 17:15 Sunny 90 32.2 48 9.1 24 24 Calm 29.68 1005 10 16.0934 0 0
5:35 pm 17:35 Sunny 90 32 50 10.1 26 26 NNW 6 9 29.68 1005 10 16.0934 0 0
5:55 pm 17:55 Sunny 88 31.3 51 10.3 27 27 N 5 7 29.68 1005 10 16.0934 0 0
6:15 pm 18:15 Sunny 90 32 48 8.8 24 24 NW 5 7 29.68 1005 10 16.0934 0 0
6:35 pm 18:35 Sunny 90 32.2 48 8.9 24 24 NW 7 11 29.65 1004 10 16.0934 0 0
6:55 pm 18:55 Sunny 87 30.3 55 12.7 34 34 NE 13 20 29.65 1004 10 16.0934 0 0
7:15 pm 19:15 Sunny 85 29.7 54 12.4 34 34 NE 10 17 29.65 1004 10 16.0934 0 0
7:35 pm 19:35 Sunny 84 29 56 13.5 39 39 NE 8 13 29.62 1003 10 16.0934 0 0
7:55 pm 19:55 Sunny 83 28.5 56 13.1 39 39 ENE 9 15 29.62 1003 10 16.0934 0 0
8:15 pm 20:15 Sunny 81 27.3 57 14.1 44 44 ENE 7 11 29.68 1005 10 16.0934 0 0
8:35 pm 20:35 Sunny 78 25.8 58 14.2 49 49 ENE 7 11 29.68 1005 10 16.0934 0 0
8:55 pm 20:55 Sunny 77 25.1 56 13.6 49 49 E 6 9 29.68 1005 10 16.0934 0 0
9:15 pm 21:15 Clear 78 25.3 56 13.5 48 48 ENE 6 9 29.68 1005 10 16.0934 0 0
9:35 pm 21:35 Clear 74 23.2 56 13.6 55 55 E 7 11 29.71 1006 10 16.0934 0 0
9:55 pm 21:55 Clear 73 22.5 56 13.6 57 57 ESE 6 9 29.71 1006 10 16.0934 0 0
10:15 pm 22:15 Clear 68 19.9 57 13.8 68 68 Calm 29.77 1008 10 16.0934 0 0
10:35 pm 22:35 Clear 67 19.4 57 14.1 72 72 Calm 29.77 1008 10 16.0934 0 0
10:55 pm 22:55 Clear 65 18.3 57 13.9 76 76 NNE 3 6 29.83 1010 7 11.26538 0 0
11:15 pm 23:15 Clear 66 19 57 14 73 73 Calm 29.8 1009 7 11.26538 0 0
11:35 pm 23:35 Clear 67 19.5 56 13.6 69 69 Calm 29.8 1009 7 11.26538 0 0
11:55 pm 23:55 Clear 65 18.6 56 13.6 73 73 SSW 3 6 29.83 1010 7 11.26538 0 0

Powered by AerisWeather